Charlottetown, Prince Edward Island

3:05 AM AST on December 10, 2016 (GMT -0400)
Charlottetown

Weather History for 71706 - June, 2014

Change the Weather History Date:

Wednesday, June 4, 2014

  Actual Average Record
Temperature  
Mean Temperature 63 °F -  
Max Temperature 71 °F 68 °F - ()
Min Temperature 55 °F 50 °F - ()
Degree Days  
Heating Degree Days 2    
Growing Degree Days 13 (Base 50)    
Moisture  
Dew Point 58 °F    
Average Humidity 83    
Maximum Humidity 100    
Minimum Humidity 68    
Precipitation  
Precipitation 0.00 in 0.12 in - ()
Sea Level Pressure  
Sea Level Pressure 29.96 in    
Wind  
Wind Speed 8 mph ()    
Max Wind Speed 16 mph    
Max Gust Speed 21 mph    
Visibility 13.5 miles    
Events Rain    
T = Trace of Precipitation, MM = Missing Value Source: Averaged Metar Reports

Daily Weather History Graph

Daily Weather History Graph

Search for Another Location

Airport or City:

Trip Planner

Search our weather history database for the weather conditions in past years. The results will help you decide how hot, cold, wet, or windy it might be!

Date:

Astronomy

Jun. 04, 2014 Rise Set
Actual Time 5:22 AM ADT 8:59 PM ADT
Civil Twilight 4:44 AM ADT 9:37 PM ADT
Nautical Twilight 3:53 AM ADT 10:28 PM ADT
Astronomical Twilight 2:45 AM ADT 11:37 PM ADT
Moon 11:53 AM ADT (6/4) 12:41 AM ADT (6/4)
Length of Visible Light 16h 53m
Length of Day
15h 36m
Waxing Crescent, 38% of the Moon is Illuminated
Jun 4
Waxing Crescent
Jun 5
First Quarter
Jun 13
Full
Jun 19
Last Quarter
Jun 27
New

Hourly Weather History & Observations

Time (ADT) Temp. Dew Point Humidity Pressure Visibility Wind Dir Wind Speed Gust Speed Precip Events Conditions
12:00 AM 59.0 °F 57.2 °F 94% 30.05 in 15.0 mi SE 6.9 mph - N/A   Scattered Clouds
1:00 AM 59.0 °F 57.2 °F 94% 30.05 in 15.0 mi SSE 9.2 mph - N/A   Mostly Cloudy
1:28 AM 59.0 °F 55.4 °F 88% 30.05 in 15.0 mi South 10.4 mph - N/A   Mostly Cloudy
3:00 AM 58 °F 56 °F 91% 30.04 in 15 mi SE 5.8 mph - -   Overcast
3:00 AM 57.2 °F 55.4 °F 94% 30.04 in 15.0 mi ESE 5.8 mph - N/A   Overcast
4:00 AM 57.2 °F 57.2 °F 100% 30.02 in 15.0 mi SSE 6.9 mph - N/A   Overcast
5:00 AM 57.2 °F 55.4 °F 94% 30.01 in 8.0 mi SE 9.2 mph - N/A   Overcast
5:10 AM 57.2 °F 55.4 °F 94% 30.01 in 5.0 mi SSE 8.1 mph - N/A   Overcast
5:32 AM 57.2 °F 55.4 °F 94% 30.01 in 2.5 mi SE 9.2 mph - N/A   Overcast
6:00 AM 57.2 °F 55.4 °F 94% 30.01 in 5.0 mi SSE 6.9 mph - N/A   Overcast
8:28 AM 59.0 °F 57.2 °F 94% 30.00 in 6.0 mi SSE 11.5 mph - N/A   Mostly Cloudy
9:00 AM 61 °F 57 °F 82% 30.00 in 15 mi SSE 10.4 mph - -   Partly Cloudy
9:00 AM 60.8 °F 57.2 °F 88% 30.00 in 15.0 mi SSE 9.2 mph - N/A   Scattered Clouds
10:00 AM 62.6 °F 57.2 °F 82% 30.00 in 15.0 mi SSE 13.8 mph - N/A   Mostly Cloudy
10:43 AM 62.6 °F 57.2 °F 82% 30.01 in 15.0 mi SE 15.0 mph - N/A   Mostly Cloudy
11:00 AM 62.6 °F 57.2 °F 82% 30.01 in 15.0 mi SSE 16.1 mph - N/A   Mostly Cloudy
12:00 PM 64.4 °F 57.2 °F 77% 30.00 in 15.0 mi South 6.9 mph - N/A   Mostly Cloudy
1:00 PM 68.0 °F 59.0 °F 73% 29.97 in 15.0 mi SSE 10.4 mph - N/A   Mostly Cloudy
2:00 PM 68.0 °F 59.0 °F 73% 29.95 in 15.0 mi South 10.4 mph 17.3 mph N/A   Mostly Cloudy
2:36 PM 68.0 °F 60.8 °F 78% 29.94 in 15.0 mi SSE 12.7 mph - N/A Rain Light Rain Showers
3:00 PM 66 °F 60 °F 75% 29.94 in 15 mi South 11.5 mph - - Rain Light Rain Showers
3:00 PM 66.2 °F 60.8 °F 83% 29.94 in 15.0 mi SSE 11.5 mph - N/A Rain Light Rain Showers
3:37 PM 68.0 °F 60.8 °F 78% 29.92 in 15.0 mi South 10.4 mph - N/A   Mostly Cloudy
4:00 PM 69.8 °F 60.8 °F 73% 29.91 in 15.0 mi SSE 11.5 mph - N/A   Mostly Cloudy
5:00 PM 69.8 °F 59.0 °F 68% 29.90 in 15.0 mi SSE 13.8 mph 20.7 mph N/A   Mostly Cloudy
6:00 PM 68.0 °F 59.0 °F 73% 29.88 in 15.0 mi SE 12.7 mph - N/A   Mostly Cloudy
7:00 PM 71.6 °F 60.8 °F 69% 29.88 in 15.0 mi SSE 10.4 mph - N/A   Mostly Cloudy
8:00 PM 66.2 °F 59.0 °F 78% 29.87 in 15.0 mi ESE 8.1 mph - N/A   Mostly Cloudy
9:00 PM 65 °F 58 °F 73% 29.86 in 15 mi SE 8.1 mph - -   Partly Cloudy
9:00 PM 64.4 °F 59.0 °F 83% 29.86 in 15.0 mi SSE 8.1 mph - N/A   Mostly Cloudy
10:00 PM 62.6 °F 55.4 °F 77% 29.87 in 15.0 mi South 9.2 mph - N/A   Mostly Cloudy
11:00 PM 62.6 °F 57.2 °F 82% 29.87 in 15.0 mi SSE 9.2 mph - N/A   Mostly Cloudy